Location: Unspecified
(33.7210°N, 0.0000°E)
Time: 02:34:06
(UTC+00:00)

GEOS 3 - Visible Passes

Search period start: 04 April 2026 00:00
Search period end: 14 April 2026 00:00
Orbit: 815 x 842 km, 115.0° (Epoch: 28 March)

Date Brightness Start Highest point End Pass type
(mag) Time Alt. Az. Time Alt. Az. Time Alt. Az.
5 Apr 6.8 04:59:12 10° NE 05:04:19 45° ESE 05:09:24 10° S visible
6 Apr 7.7 04:41:12 10° ENE 04:45:40 27° ESE 04:50:04 10° S visible
7 Apr 8.3 04:23:52 10° ENE 04:26:56 15° ESE 04:29:59 10° SSE visible
10 Apr 8.0 05:05:31 10° ENE 05:09:49 24° ESE 05:14:05 10° SSE visible
11 Apr 8.4 04:48:24 10° E 04:51:06 14° ESE 04:53:46 10° SE visible
